User: anonymous   Login
Location: Unspecified
(0.0000°N, 0.0000°E)
Time: 15:44:08
(UTC+00:00)
Language:

DX 1 - Orbit

View from above orbital plane
View from above orbital plane
View from above satellite
View from above satellite

Ground track
Ground track

The orbit data is extracted from the following two-line orbital elements,

1 40071U 14037C   20293.05669472  .00000096  00000-0  19796-4 0  9993
2 40071  98.4623 118.3324 0009596  99.2031 261.0269 14.81400269339557
Epoch (UTC): 19 October 2020 01:21:38
Eccentricity: 0.0009596
inclination: 98.4623°
perigee height: 618 km
apogee height: 631 km
right ascension of ascending node: 118.3324°
argument of perigee: 99.2031°
revolutions per day: 14.81400269
mean anomaly at epoch: 261.0269°
orbit number at epoch: 33955

The dashed part of the orbit path shows where the satellite is in the earth's shadow,  

DLR